sat.trackr.live / text

‹ back to catalog

STARLINK-30066

NORAD 56704 · 2023-067S

PAYLOAD ACTIVE UNKNOWN

§ Identity

Operator
Country
US
Launch date
2023-05-19
Launch site
AFETR
Launch vehicle
Mass (kg)
RCS (m²)

Purposes: comms

External: N2YO · Heavens-Above · Gunter

§ Orbital elements

Epoch: 2026-09-20T10:04:28.718976Z

Period
94.27 min
Inclination
43.0024°
Eccentricity
0.0000998
Mean motion
15.27574481 rev/d
Perigee alt
482.4 km
Apogee alt
483.8 km
Semi-major
6,861.2 km
B*
1.7121e-5
RAAN
251.1290°
Arg perigee
286.9952°
Mean anomaly
73.0791°
Rev number
18,548

§ Raw data

STARLINK-300661 56704U 23067S   26263.41977684  .00000209  00000+0  17121-4 0  99912 56704  43.0024 251.1290 0000998 286.9952  73.0791 15.27574481185481

JSON: /api/v1/satellites/56704 · /tle

For live sub-satellite position, see the globe view (requires WebGL).

§ Visibility from observer

Set your observer location to see the next 7 days of passes ≥ 10°. The values pass through the URL so the page stays shareable.

No JS? Fill the form by hand. The geolocation button needs JavaScript.